Volver al catálogo

STARLINK-5785

ActivoComunicacionesVLEO
NORAD 56031·PAYLOAD·🇺🇸 United States

Lanzado Mar 24, 2023 desde Cape Canaveral Space Force Station

Loading…

Próximos Pases (próximas 24 horas)

TLE

ActualizadoSource: CelesTrak SupGP

Época: Sep 14, 2026, 20:47 UTC

1 56031C 23042AX  26257.86645833  .00055463  00000+0  20090-2 0  2573
2 56031  43.0038  56.6650 0001699 270.7188 312.8709 15.27548254    15

Sigue STARLINK-5785 en tiempo real con AllMySat

Download on the App Store